Prochaines Courses

Connexion

Semi

SEMI SAINT FIRMIN du 27/09/14 (Réelle 21,3)
Rang Dossard Nom Prénom Temps Cat Rang Cat Ecart Ecart Cat Club Vitesse Km/h Temps au Km
1 64 LEFEBVRE JULIEN 01:19:18 SEM 1 00:00:00 00:00:00 TOUQUET TRAIL NATURE 16,116 03:43
2 27 MOREL NICOLAS 01:20:28 V1M 1 00:01:10 00:00:00 TOUQUET OPALE ATHLETISME 15,882 03:47
3 59 DUCHATEAU NICOLAS 01:21:03 SEM 2 00:01:45 00:01:45 USAL 15,768 03:48
4 63 BEAUMONT DENIS 01:21:10 V1M 2 00:01:52 00:00:42 ATHLETISME CLUB OUTREAU 15,745 03:49
5 39 CARPENTIER GINO 01:24:38 V1M 3 00:05:20 00:04:10 NON LICENCIE 15,100 03:58
6 60 GOSSELIN REYNALD 01:24:58 SEM 3 00:05:40 00:05:40 NON LICENCIE 15,041 03:59
7 69 CARBONNIER MICHEL 01:25:38 V1M 4 00:06:20 00:05:10 PATRIOTES DE GUINES 14,924 04:01
8 9 VASSEUR DIMITRI 01:26:47 V1M 5 00:07:29 00:06:19 CALOTTERIE 14,726 04:04
9 57 LARUELLE FREDERIC 01:27:13 V1M 6 00:07:55 00:06:45 WIMEREUX RUNNING CLUB 14,653 04:06
10 31 POCLET CEDRIC 01:28:23 SEM 4 00:09:05 00:09:05 TOUQUET OPALE ATHLETISME 14,460 04:09
11 67 REMBUR DANIEL 01:28:54 V2M 1 00:09:36 00:00:00 TOUQUET OPALE ATHLETISME 14,376 04:10
12 42 FOURNIER JEROME 01:28:58 SEM 5 00:09:40 00:09:40 PATRIOTES DE GUINES 14,365 04:11
13 73 DESACHY MARC 01:29:12 V1M 7 00:09:54 00:08:44 NON LICENCIE 14,327 04:11
14 21 RAY SAMUEL 01:29:18 V1M 8 00:10:00 00:08:50 NON LICENCIE 14,311 04:12
15 56 VIEZ CEDRICK 01:30:37 V1M 9 00:11:19 00:10:09 NON LICENCIE 14,103 04:15
16 71 COUPLET REMY 01:30:40 SEM 6 00:11:22 00:11:22 BOST 14,096 04:15
17 66 REMBUR JULIEN 01:32:08 SEM 7 00:12:50 00:12:50 NON LICENCIE 13,871 04:20
18 25 DUMONT LUDOVIC 01:32:11 SEM 8 00:12:53 00:12:53 WIMEREUX RUNNING CLUB 13,864 04:20
19 38 DUTAILLY JACQUES 01:33:47 V3M 1 00:14:29 00:00:00 NON LICENCIE 13,627 04:24
20 58 DUCROCQ ARNAUD 01:33:56 V1M 10 00:14:38 00:13:28 ELAN FRUGEOIS 13,605 04:25
21 55 BOUVOT CYRILLE 01:34:09 SEM 9 00:14:51 00:14:51 NON LICENCIE 13,574 04:25
22 17 GODART JEAN-CHRISTOPHE 01:34:17 V1M 11 00:14:59 00:13:49 NON LICENCIE 13,555 04:26
23 20 HAPPE FRANCOIS 01:34:19 V1M 12 00:15:01 00:13:51 TOUQUET OPALE ATHLETISME 13,550 04:26
24 53 WAREMBOURG PHILIPPE 01:34:51 V1M 13 00:15:33 00:14:23 BERCK A C O 13,474 04:27
25 10 BAHEUX JEAN MICHEL 01:35:29 V3M 2 00:16:11 00:01:42 NON LICENCIE 13,385 04:29
26 18 LAURENT JOCELYN 01:35:40 V2M 2 00:16:22 00:06:46 NON LICENCIE 13,359 04:29
27 83 DELCLOY OLIVIER 01:35:58 V1M 14 00:16:40 00:15:30 BERCK A C O 13,317 04:30
28 61 LAMOUR JEROME 01:36:37 V1M 15 00:17:19 00:16:09 TOA 13,228 04:32
29 37 LANSCOTTE JOEL 01:37:43 V1M 16 00:18:25 00:17:15 PATRIOTES DE GUINES 13,079 04:35
30 12 PHILIS JACQUES 01:37:57 V3M 3 00:18:39 00:04:10 TOUQUET OPALE ATHLETISME 13,047 04:36
31 45 ROBART EDDY 01:38:54 V1M 17 00:19:36 00:18:26 CS NESLES 12,922 04:39
32 32 DEWALLE LAURENT 01:39:00 SEM 10 00:19:42 00:19:42 NON LICENCIE 12,909 04:39
33 11 MORTREUX GREGORY 01:39:30 SEM 11 00:20:12 00:20:12 NON LICENCIE 12,844 04:40
34 72 SEINE CEDRIC 01:40:12 V1M 18 00:20:54 00:19:44 NON LICENCIE 12,754 04:42
35 29 MAGNIER BLAISE 01:40:23 SEM 12 00:21:05 00:21:05 NON LICENCIE 12,731 04:43
36 44 CHARTAUX RAPHAEL 01:40:25 V1M 19 00:21:07 00:19:57 CS NESLES 12,727 04:43
37 8 DEBUSSCHERE MIKAEL 01:40:27 SEM 13 00:21:09 00:21:09 ATHLETISME CLUB OUTREAU 12,723 04:43
38 77 PETIT NICOLAS 01:43:27 V1M 20 00:24:09 00:22:59 FREE IRON TEAM 12,354 04:51
39 81 BELLEMBOIS STEPHANE 01:44:51 V1M 21 00:25:33 00:24:23 NON LICENCIE 12,189 04:55
40 65 LEROUGE DAVID 01:45:30 V1M 22 00:26:12 00:25:02 C.S. NESLES 12,114 04:57
41 24 QUESNEL RENE 01:45:50 V4M 1 00:26:32 00:00:00 FREVENT OLYMPIC CLUB 12,076 04:58
42 75 ROBBE LAETITIA 01:46:39 SEF 1 00:27:21 00:00:00 NON LICENCIE 11,983 05:00
43 79 ROUSSEL MAXIME 01:46:40 SEM 14 00:27:22 00:27:22 NON LICENCIE 11,981 05:00
44 76 ROBERT DAVID 01:46:42 V1M 23 00:27:24 00:26:14 NON LICENCIE 11,978 05:01
45 40 GRESSIER YANNICK 01:47:04 V1M 24 00:27:46 00:26:36 TEAM TRAIL 62 11,936 05:02
46 68 GEENS MELANIE 01:47:33 SEF 2 00:28:15 00:00:54 PATRIOTES DE GUINES 11,883 05:03
47 51 CHOUROT LUCIEN 01:47:44 V2M 3 00:28:26 00:18:50 LE DRAPEAU 11,863 05:03
48 82 LEJEUNE FRANCK 01:48:35 V1M 25 00:29:17 00:28:07 NON LICENCIE 11,770 05:06
49 54 MILLE FRANCIS 01:48:48 V2M 4 00:29:30 00:19:54 NON LICENCIE 11,746 05:06
50 46 CRETEL LAURENT 01:48:50 V1M 26 00:29:32 00:28:22 C.S. NESLES 11,743 05:07
51 74 FAIT MAXIME 01:51:04 SEM 15 00:31:46 00:31:46 NON LICENCIE 11,507 05:13
52 36 SENECHAL MARIE-CHRISTINE 01:51:32 V2F 1 00:32:14 00:00:00 PATRIOTES DE GUINES 11,458 05:14
53 85 GRESSIER ROBERT 01:52:56 V2M 5 00:33:38 00:24:02 NON LICENCIE 11,316 05:18
54 13 SAGNIER REMY 01:53:48 SEM 16 00:34:30 00:34:30 WIMEREUX RUNNING CLUB 11,230 05:21
55 22 RAY ISABELLE 01:53:50 SEF 3 00:34:32 00:07:11 CULTURE DANSE ETAPLES 11,227 05:21
56 84 RENARD JULIEN 01:53:55 SEM 17 00:34:37 00:34:37 TEAM TRAIL 62 11,219 05:21
57 28 STEC FREDERIC 01:54:03 V1M 27 00:34:45 00:33:35 NON LICENCIE 11,206 05:21
58 34 BOURNAILLE NICOLE 01:54:11 V3F 1 00:34:53 00:00:00 NON LICENCIE 11,193 05:22
59 23 DELBE PASCALE 01:54:12 V2F 2 00:34:54 00:02:40 CALOTTERIE 11,191 05:22
60 80 KAZMIERCZAK XAVIER 01:54:12 SEM 18 00:34:54 00:34:54 NON LICENCIE 11,191 05:22
61 43 CHARTAUX SUZEL 01:55:49 V1F 1 00:36:31 00:00:00 CS NESLES 11,035 05:26
62 48 LEPERCQ FLORENT 01:55:50 V2M 6 00:36:32 00:26:56 LE DRAPEAU 11,033 05:26
63 15 BUCQUET STEPHANE 01:56:22 V1M 28 00:37:04 00:35:54 NON LICENCIE 10,983 05:28
64 6 DURAND AMAURY 01:56:41 ESM 1 00:37:23 00:00:00 NON LICENCIE 10,953 05:29
65 52 FIEVET-VASSEUR CHRISTELE 01:57:53 V1F 2 00:38:35 00:02:04 NON LICENCIE 10,841 05:32
66 7 NOURTIER CLEMENT 01:59:27 JUM 1 00:40:09 00:00:00 CALOTTERIE 10,699 05:36
67 14 DAUCHEZ BRUNO 01:59:31 V2M 7 00:40:13 00:30:37 CALOTTERIE 10,693 05:37
68 16 HUMERY PATRICIA 02:00:21 SEF 4 00:41:03 00:13:42 NON LICENCIE 10,619 05:39
69 35 RUIZ JOSEPH 02:00:23 V2M 8 00:41:05 00:31:29 BERCK A C O 10,616 05:39
70 30 GIBBS BENJAMIN 02:03:20 V1M 29 00:44:02 00:42:52 NON LICENCIE 10,362 05:47
71 50 FAUQUEMBERGUE VERONIQUE 02:03:31 V1F 3 00:44:13 00:07:42 LE DRAPEAU 10,347 05:48
72 41 BONNET LAURENT 02:04:07 V1M 30 00:44:49 00:43:39 NON LICENCIE 10,297 05:50
73 1 DAVID SYLVAIN 02:04:33 V2M 9 00:45:15 00:35:39 NON LICENCIE 10,261 05:51
74 70 LEBEL BERNARD 02:07:11 V3M 4 00:47:53 00:33:24 NON LICENCIE 10,048 05:58
75 2 HERBIN PIERRE 02:07:12 SEM 19 00:47:54 00:47:54 NON LICENCIE 10,047 05:58
76 19 DEBAS GERARD 02:11:09 V3M 5 00:51:51 00:37:22 US SAMER CYCLO 9,745 06:09
77 26 LEBAS JEAN 02:13:17 V3M 6 00:53:59 00:39:30 CALOTTERIE 9,589 06:15
78 5 MAILLET CONTOZ JADE 02:13:58 ESF 1 00:54:40 00:00:00 NON LICENCIE 9,540 06:17
79 4 AGARD MARIE-CAROLINE 02:14:00 V2F 3 00:54:42 00:22:28 NON LICENCIE 9,537 06:17
80 33 REGNEAULT GEORGES 02:47:26 V3M 7 01:28:08 01:13:39 NON LICENCIE 7,633 07:52
81 78 TRIPLET DAVID 02:50:11 V1M 31 01:30:53 01:29:43 NON LICENCIE 7,510 07:59
Mai 2018
Lun Mar Mer Jeu Ven Sam Dim
1
2
3
4
5
6
7
8
9
10
11
12
13
14
15
16
17
18
19
20
21
22
23
24
25
28
29
30
31